Wind_Speed
41 42 43 44 45 46 47 49 50 50 51 52 53 54 55 57 58 59 61 62 64 65 66 68 70 72 73 75 77 78 80 82 84 82 83 84 84 84 83 82 80 77 75
43 44 45 46 47 48 49 50 51 52 53 54 55 56 57 59 60 61 62 64 65 66 68 70 71 74 75 77 79 80 82 83 85 84 82 82 81 80 78 75 72 69 67
45 46 47 48 49 50 51 52 53 54 55 56 57 58 59 60 61 63 64 65 67 68 70 72 74 76 77 79 81 82 83 84 84 84 80 78 75 72 69 66 64 61 60
46 47 48 49 50 51 52 53 54 55 56 57 58 59 60 61 62 64 65 67 68 70 72 74 76 78 80 81 82 82 82 82 80 78 75 71 67 64 62 59 57 55 53
48 49 50 51 52 53 54 54 56 57 58 58 59 60 61 62 64 66 67 68 70 72 75 77 79 80 82 82 81 80 79 77 74 71 67 63 59 57 55 54 52 50 48
49 50 51 52 53 53 54 56 56 57 58 60 61 62 62 64 66 68 70 72 74 76 77 79 80 81 81 79 78 76 74 71 67 64 60 56 53 52 50 49 47 46 44
50 51 52 53 53 54 56 56 57 58 59 61 61 63 64 66 68 70 73 75 77 78 80 81 80 79 77 75 72 69 66 63 60 58 54 51 49 47 46 45 45 44 42
51 52 53 53 54 55 56 57 58 60 61 61 63 64 66 68 71 74 76 78 79 81 81 80 78 75 72 69 66 62 58 56 54 53 50 47 45 43 43 43 42 41 40
52 52 53 54 55 56 57 58 59 61 62 63 65 67 69 71 74 77 80 81 81 81 79 76 74 70 66 64 61 57 53 51 50 48 46 44 42 41 42 41 41 40 39
51 52 53 54 56 57 58 59 61 62 63 65 67 69 72 75 78 81 83 83 82 78 75 71 68 65 61 58 56 52 49 47 45 43 42 41 40 40 40 40 39 38 37
51 52 54 55 57 58 59 60 62 64 66 67 69 72 75 79 81 83 84 83 79 75 70 66 62 59 56 54 52 49 46 44 41 40 38 37 38 38 38 37 36 35 34
52 53 54 56 57 59 60 62 64 66 68 70 73 75 78 81 83 83 81 78 75 71 66 61 57 54 51 49 47 45 43 41 39 37 36 35 35 35 34 34 33 33 32
53 54 55 57 58 60 62 64 66 69 72 74 77 79 80 82 82 80 77 73 70 66 61 57 53 50 47 45 43 42 41 39 36 35 34 33 32 31 31 30 30 30 29
53 55 56 58 60 62 64 67 70 73 76 78 81 82 82 81 80 76 72 68 64 60 56 52 49 46 44 42 40 39 38 36 34 33 32 31 30 29 28 27 27 27 27
55 56 58 60 62 65 67 70 73 76 80 82 84 84 83 80 76 73 68 63 59 55 51 47 44 42 40 39 38 36 35 34 33 32 31 30 29 28 27 27 26 26 25
56 58 61 63 66 68 71 73 76 79 82 84 84 84 82 78 73 68 63 58 55 51 47 44 41 39 37 35 34 34 33 32 32 31 30 28 27 27 27 27 26 25 25
59 61 64 67 70 72 75 78 79 80 82 83 82 81 78 73 68 62 58 54 50 47 43 41 38 36 34 33 32 31 31 31 30 29 28 28 27 27 27 27 26 26 25
62 65 68 70 74 76 79 81 83 83 82 79 78 76 72 67 62 57 53 49 45 43 41 39 36 33 32 31 30 30 29 29 29 28 27 27 27 26 27 27 26 26 25
66 68 71 74 77 79 81 83 84 83 82 79 74 69 65 61 56 52 49 46 43 40 38 36 34 32 31 30 29 29 29 28 28 27 27 26 26 26 26 26 26 25 25
69 72 76 78 80 81 83 83 83 81 79 74 69 64 59 55 50 46 44 43 40 38 36 33 31 30 30 29 29 29 28 28 27 27 26 26 26 26 26 26 26 26 25
73 76 78 80 81 83 83 83 81 78 74 69 63 59 55 51 47 43 41 39 37 35 33 31 30 30 29 29 29 28 28 27 27 26 25 26 26 26 26 26 26 26 26
76 78 79 81 82 83 82 80 77 73 69 64 59 55 52 48 44 41 38 36 34 33 31 30 29 29 29 29 28 27 27 26 26 25 26 26 26 27 27 27 27 27 27
78 80 81 82 82 81 79 76 72 67 63 59 56 51 47 44 41 38 35 33 32 31 31 30 29 29 29 29 28 27 26 26 26 26 26 26 26 27 27 28 28 28 28
80 81 82 81 80 77 73 69 65 61 57 54 50 47 43 40 37 34 33 31 31 30 30 29 29 29 28 28 28 27 26 26 26 26 26 26 26 27 28 28 29 29 29
81 81 80 78 75 71 67 63 59 55 52 49 45 42 39 36 34 32 31 30 30 29 29 29 28 28 27 27 27 27 27 27 27 27 27 27 27 28 28 28 29 29 29
79 78 76 73 69 65 61 57 53 50 47 44 41 38 35 33 31 30 30 29 28 28 28 28 27 27 27 27 27 27 27 28 28 28 28 28 27 28 28 29 29 28 29
Wind_Direction
292 294 295 295 295 295 295 295 295 295 295 295 294 294 294 295 295 295 295 295 295 296 296 296 296 296 296 295 295 295 294 294 293 292 292 291 290 289 288 286 285 283 281
293 294 295 295 295 296 296 296 296 296 295 295 295 295 296 296 296 296 296 297 297 297 298 298 298 298 298 297 297 296 296 295 295 294 293 292 290 289 288 286 284 282 280
294 295 295 296 296 297 297 297 296 296 297 297 297 297 297 297 298 298 299 299 300 300 300 300 300 300 299 299 298 298 297 296 295 295 293 292 290 289 287 285 283 281 280
294 295 296 296 297 297 297 297 297 297 298 298 298 299 299 300 300 301 301 301 302 302 302 302 302 301 301 300 299 298 297 296 295 294 293 292 290 288 286 284 282 281 280
295 295 297 297 297 297 297 297 298 298 299 299 300 301 301 302 302 302 302 303 303 304 304 303 303 303 302 301 300 299 297 296 295 294 292 291 289 287 284 283 281 280 279
295 296 297 297 297 298 298 298 299 299 300 301 302 302 303 303 303 304 304 305 305 305 305 305 304 304 303 301 300 299 298 296 295 293 292 290 288 285 283 281 281 280 278
296 296 297 297 298 298 298 299 300 301 302 302 303 303 304 304 305 305 306 306 307 307 306 306 305 304 302 301 299 298 297 296 295 293 292 290 287 285 283 282 281 280 278
296 296 297 297 298 299 299 300 301 302 303 303 304 304 305 305 306 307 307 308 308 308 308 307 305 303 302 300 299 298 296 295 294 293 292 290 288 286 284 283 282 280 279
296 297 297 298 299 299 300 301 302 303 303 304 305 305 306 307 307 308 309 309 309 309 308 306 304 303 301 299 298 297 296 294 292 291 290 288 287 285 284 284 283 282 281
297 298 298 299 300 300 301 302 303 303 304 305 306 306 307 308 309 309 310 310 309 308 307 305 303 302 300 299 298 297 295 294 292 290 289 288 287 286 285 285 285 284 283
298 299 299 300 301 301 302 303 304 304 305 306 307 308 309 309 310 310 310 310 309 308 307 305 302 300 299 298 297 296 295 294 292 290 288 287 286 286 286 286 285 285 284
299 300 300 301 302 302 303 304 305 305 306 306 307 308 309 310 311 310 310 309 308 307 306 304 301 299 298 297 296 295 295 294 292 291 289 288 287 286 284 284 284 285 285
300 301 301 302 303 303 304 305 305 306 307 307 308 309 310 310 310 310 309 308 307 306 305 303 301 299 298 297 296 295 295 293 292 290 290 289 287 285 285 284 284 284 285
301 301 302 303 303 304 305 306 306 307 308 308 309 310 311 311 310 309 308 306 305 304 303 302 300 298 297 296 296 295 294 293 291 290 290 289 287 286 285 285 285 284 284
302 302 303 303 304 305 306 307 308 308 309 310 310 311 311 311 310 309 307 306 304 303 302 300 299 297 295 295 295 295 293 292 291 290 289 288 287 285 284 284 284 284 283
303 303 304 304 305 306 307 307 309 309 310 311 311 311 311 311 310 308 307 305 304 303 302 301 299 297 295 294 294 294 293 292 291 289 288 287 285 284 284 284 283 284 283
304 304 305 306 306 307 308 308 309 310 311 311 311 311 310 310 309 308 306 305 304 302 301 300 299 297 295 294 294 294 293 292 290 289 288 286 285 284 284 284 284 284 283
305 306 306 307 307 308 309 309 310 311 311 311 311 310 309 308 307 306 305 304 303 301 300 299 298 296 295 294 295 295 294 293 291 290 288 287 285 284 284 284 284 283 283
306 306 307 308 308 309 310 310 311 311 311 311 311 309 308 307 306 305 304 303 302 300 299 297 296 295 295 294 294 295 295 294 292 289 288 287 286 286 284 284 285 284 283
307 307 308 309 309 310 310 311 311 311 311 311 311 309 307 306 304 302 301 301 300 299 298 296 294 294 294 293 294 295 295 294 292 289 287 287 287 286 285 284 285 285 284
307 308 309 309 310 310 311 311 311 311 311 311 310 308 307 305 303 301 300 299 298 298 297 294 293 294 294 293 294 295 295 294 292 289 287 288 288 286 285 284 284 284 283
308 309 309 310 310 311 311 311 311 310 310 309 308 307 305 303 302 300 299 298 297 297 296 294 293 293 293 293 295 295 294 293 292 290 288 288 288 287 286 285 285 284 284
309 309 310 310 311 311 311 311 311 310 309 308 307 305 303 301 299 297 296 296 296 296 296 294 293 293 292 293 294 293 293 292 292 291 290 289 288 287 286 285 284 284 283
309 310 311 311 311 311 311 311 311 310 309 308 306 304 302 299 297 295 294 294 295 295 295 295 294 293 292 292 293 292 292 292 292 292 291 290 289 288 287 286 285 284 283
310 311 311 311 311 312 312 311 311 310 310 308 306 304 301 298 296 294 293 293 294 295 295 295 294 293 292 293 293 292 291 292 292 292 292 291 291 290 289 288 286 285 284
310 311 311 311 312 312 312 312 312 311 310 309 306 304 301 298 296 295 293 293 294 294 294 294 294 294 293 293 293 293 292 292 292 293 293 292 292 291 290 289 287 286 285
Height
5730 5726 5722 5718 5714 5709 5705 5700 5696 5691 5686 5681 5676 5671 5666 5660 5654 5649 5643 5637 5630 5624 5617 5610 5603 5595 5587 5579 5571 5563 5555 5546 5542 5542 5533 5524 5515 5508 5502 5495 5490 5486 5482
5720 5716 5711 5707 5703 5698 5693 5688 5683 5678 5673 5668 5663 5657 5651 5645 5639 5633 5627 5621 5614 5607 5599 5592 5584 5575 5567 5559 5550 5542 5533 5524 5516 5514 5509 5499 5491 5482 5476 5471 5467 5463 5460
5709 5705 5700 5696 5691 5686 5681 5676 5671 5665 5660 5654 5648 5642 5636 5630 5624 5617 5611 5604 5596 5589 5581 5572 5564 5555 5546 5537 5528 5519 5510 5501 5491 5485 5482 5475 5467 5460 5454 5450 5445 5443 5440
5698 5693 5689 5684 5679 5674 5668 5663 5657 5652 5646 5640 5634 5627 5621 5614 5608 5601 5594 5587 5579 5570 5561 5552 5543 5533 5524 5515 5505 5496 5486 5477 5469 5461 5456 5452 5446 5439 5434 5430 5428 5425 5423
5687 5682 5677 5672 5666 5661 5655 5650 5644 5638 5632 5625 5619 5612 5605 5598 5591 5584 5577 5569 5561 5552 5542 5532 5522 5511 5501 5491 5481 5472 5463 5455 5447 5440 5435 5431 5427 5421 5416 5412 5411 5409 5408
5675 5670 5664 5659 5654 5648 5642 5636 5630 5624 5618 5611 5604 5597 5590 5582 5574 5566 5558 5550 5541 5532 5522 5511 5500 5489 5478 5468 5458 5449 5440 5432 5426 5420 5416 5413 5409 5404 5400 5397 5395 5394 5394
5663 5657 5652 5646 5641 5635 5629 5623 5616 5610 5603 5596 5589 5581 5574 5565 5557 5548 5539 5530 5521 5511 5500 5489 5478 5467 5456 5446 5438 5429 5421 5413 5407 5402 5399 5396 5392 5389 5385 5383 5380 5379 5378
5650 5645 5639 5633 5628 5621 5615 5609 5602 5596 5589 5581 5574 5565 5557 5548 5539 5530 5520 5511 5501 5489 5478 5466 5456 5446 5435 5426 5419 5412 5406 5399 5392 5386 5383 5380 5377 5374 5371 5369 5366 5365 5365
5637 5632 5626 5620 5614 5608 5601 5595 5588 5581 5574 5566 5558 5549 5540 5531 5520 5510 5499 5490 5480 5469 5457 5445 5434 5425 5416 5407 5400 5396 5391 5385 5379 5373 5370 5366 5364 5361 5357 5355 5353 5352 5352
5625 5619 5613 5606 5600 5594 5587 5580 5573 5566 5558 5550 5542 5532 5522 5513 5501 5490 5478 5468 5459 5449 5438 5426 5415 5406 5398 5390 5384 5379 5375 5371 5366 5362 5358 5354 5351 5348 5345 5343 5341 5339 5338
5612 5606 5599 5593 5586 5580 5573 5566 5558 5550 5543 5534 5526 5516 5505 5493 5481 5469 5456 5445 5435 5426 5418 5408 5398 5389 5382 5376 5369 5364 5360 5356 5353 5349 5346 5343 5340 5337 5334 5331 5329 5327 5326
5599 5592 5586 5579 5572 5565 5558 5550 5542 5533 5525 5516 5507 5499 5487 5474 5461 5448 5436 5424 5413 5405 5398 5390 5382 5375 5368 5362 5356 5351 5347 5343 5340 5337 5334 5332 5329 5326 5323 5321 5319 5317 5315
5585 5578 5572 5565 5558 5550 5542 5534 5526 5516 5507 5498 5488 5479 5469 5456 5442 5429 5417 5406 5395 5386 5379 5373 5366 5360 5354 5349 5344 5339 5335 5332 5328 5326 5323 5321 5318 5315 5313 5311 5309 5307 5306
5571 5565 5558 5551 5543 5535 5526 5517 5508 5498 5488 5477 5467 5457 5447 5437 5424 5411 5400 5390 5380 5371 5364 5358 5352 5346 5341 5336 5332 5328 5324 5320 5318 5315 5313 5310 5308 5306 5303 5302 5300 5298 5297
5557 5550 5543 5536 5528 5520 5511 5501 5490 5480 5466 5455 5445 5433 5423 5415 5404 5391 5381 5372 5364 5356 5350 5345 5339 5334 5329 5325 5321 5317 5313 5310 5307 5305 5303 5300 5298 5296 5294 5293 5291 5290 5288
5543 5536 5528 5520 5512 5503 5494 5486 5474 5461 5449 5435 5421 5409 5399 5390 5381 5372 5363 5355 5348 5341 5335 5331 5326 5322 5318 5314 5310 5307 5303 5300 5298 5295 5293 5291 5289 5287 5286 5284 5282 5281 5280
5527 5520 5512 5503 5494 5485 5475 5465 5457 5448 5433 5417 5403 5390 5379 5370 5362 5354 5346 5340 5334 5327 5322 5318 5314 5310 5307 5303 5300 5297 5294 5291 5288 5286 5283 5282 5280 5278 5277 5275 5274 5272 5271
5512 5503 5495 5486 5476 5466 5455 5444 5433 5423 5415 5404 5389 5374 5362 5353 5345 5338 5331 5325 5321 5315 5310 5306 5303 5299 5296 5293 5290 5287 5284 5281 5279 5276 5274 5272 5271 5269 5268 5266 5265 5263 5262
5496 5487 5477 5468 5457 5446 5435 5424 5412 5400 5390 5380 5371 5359 5347 5338 5331 5324 5317 5312 5307 5303 5299 5295 5292 5289 5286 5283 5280 5278 5275 5272 5269 5267 5265 5263 5262 5260 5259 5257 5256 5255 5253
5479 5469 5458 5449 5438 5427 5415 5403 5391 5380 5369 5359 5350 5341 5332 5324 5318 5312 5306 5300 5295 5292 5288 5285 5282 5279 5276 5273 5271 5268 5265 5263 5260 5258 5256 5254 5253 5251 5250 5248 5247 5246 5245
5462 5452 5440 5429 5418 5406 5395 5383 5371 5360 5350 5341 5332 5324 5315 5309 5304 5299 5294 5289 5284 5281 5278 5275 5272 5269 5266 5264 5261 5259 5256 5253 5251 5249 5247 5245 5244 5242 5240 5239 5238 5236 5235
5443 5433 5422 5410 5398 5387 5375 5363 5352 5341 5332 5323 5316 5309 5301 5295 5289 5285 5281 5277 5274 5270 5267 5265 5262 5260 5257 5254 5252 5249 5247 5244 5242 5240 5238 5236 5234 5233 5231 5230 5228 5227 5226
5424 5413 5402 5390 5378 5367 5355 5344 5333 5323 5314 5306 5299 5293 5287 5281 5277 5273 5269 5266 5263 5260 5257 5254 5252 5250 5247 5245 5242 5240 5238 5235 5233 5231 5229 5227 5225 5223 5221 5220 5218 5217 5216
5404 5393 5381 5370 5359 5347 5336 5326 5316 5307 5299 5291 5284 5278 5273 5268 5265 5261 5258 5256 5253 5250 5247 5245 5242 5240 5237 5235 5232 5230 5228 5226 5224 5221 5219 5218 5216 5213 5212 5210 5208 5207 5205
5384 5372 5361 5350 5339 5329 5319 5310 5301 5292 5284 5277 5271 5265 5260 5257 5253 5250 5248 5245 5243 5240 5237 5235 5232 5230 5228 5225 5223 5221 5219 5216 5214 5212 5210 5208 5206 5204 5201 5199 5198 5196 5194
5365 5353 5342 5332 5322 5312 5303 5294 5286 5279 5271 5265 5259 5254 5249 5246 5243 5240 5238 5235 5233 5230 5228 5225 5223 5220 5218 5216 5213 5211 5209 5206 5204 5202 5199 5198 5196 5193 5191 5189 5187 5185 5184